Weather History for KBVN - November, 2013

Change the Weather History Date:

Monday, November 11, 2013

  Actual Average (KOFK) Record (KOFK)
Temperature  
Mean Temperature 28 °F 39 °F  
Max Temperature 42 °F 50 °F 77 °F (2005)
Min Temperature 14 °F 28 °F -13 °F (1986)
Degree Days  
Heating Degree Days 37 26  
Month to date heating degree days 257  
Since 1 July heating degree days 842  
Cooling Degree Days 0 0  
Month to date cooling degree days 0  
Year to date cooling degree days 915  
Moisture  
Dew Point 19 °F    
Average Humidity 70    
Maximum Humidity 91    
Minimum Humidity 47    
Precipitation  
Precipitation 0.00 in 0.04 in 1.40 in (1982)
Month to date precipitation 0.53  
Year to date precipitation 25.82  
Snow  
Snow 0.00 in 0.10 in - ()
Month to date snowfall 1.0  
Since 1 July snowfall 1.8  
Snow Depth -    
Sea Level Pressure  
Sea Level Pressure 30.44 in    
Wind  
Wind Speed 10 mph (North)    
Max Wind Speed 21 mph    
Max Gust Speed 29 mph    
Visibility 10 miles    
Events      
T = Trace of Precipitation, MM = Missing Value Source: NWS Daily Summary

Daily Weather History Graph

Daily Weather History Graph

Search for Another Location

Airport or City:

Trip Planner

Search our weather history database for the weather conditions in past years. The results will help you decide how hot, cold, wet, or windy it might be!

Date:

Astronomy

Nov. 11, 2013 Rise Set
Actual Time 7:16 AM CST 5:15 PM CST
Civil Twilight 6:47 AM CST 5:44 PM CST
Nautical Twilight 6:13 AM CST 6:18 PM CST
Astronomical Twilight 5:41 AM CST 6:50 PM CST
Moon 2:01 PM CST (11/11) 12:58 AM CST (11/11)
Length of Visible Light 10h 57m
Length of Day
9h 58m
Waxing Gibbous, 66% of the Moon is Illuminated
Nov 11
Waxing Gibbous
Nov 17
Full
Nov 25
Last Quarter
Dec 2
New
Dec 9
First Quarter

Hourly Weather History & Observations

Time (CST) Temp. Windchill Dew Point Humidity Pressure Visibility Wind Dir Wind Speed Gust Speed Precip Events Conditions
12:15 AM 38.7 °F - 34.7 °F 86% 30.12 in 10.0 mi Calm Calm - N/A   Clear
12:35 AM 41.4 °F - 36.7 °F 83% 30.12 in 10.0 mi Calm Calm - N/A   Clear
12:55 AM 40.8 °F 38.8 °F 36.9 °F 86% 30.11 in 10.0 mi West 3.5 mph - N/A   Clear
1:15 AM 41.9 °F 39.0 °F 37.9 °F 86% 30.11 in 10.0 mi West 4.6 mph - N/A   Clear
1:35 AM 42.3 °F 38.6 °F 38.7 °F 87% 30.11 in 10.0 mi NW 5.8 mph - N/A   Clear
1:55 AM 39.6 °F 33.0 °F 36.9 °F 90% 30.11 in 10.0 mi NW 10.4 mph - N/A   Clear
2:15 AM 39.9 °F 35.8 °F 37.0 °F 89% 30.11 in 10.0 mi NW 5.8 mph - N/A   Clear
2:35 AM 39.7 °F 34.3 °F 37.2 °F 91% 30.12 in 10.0 mi NNW 8.1 mph - N/A   Clear
2:55 AM 40.1 °F 34.1 °F 35.2 °F 83% 30.12 in 10.0 mi NNW 9.2 mph - N/A   Clear
3:15 AM 38.5 °F 32.1 °F 33.1 °F 81% 30.13 in 10.0 mi NNW 9.2 mph - N/A   Clear
3:35 AM 37.9 °F 31.5 °F 32.2 °F 80% 30.14 in 10.0 mi NNW 9.2 mph - N/A   Clear
3:55 AM 36.7 °F 29.9 °F 32.0 °F 83% 30.14 in 10.0 mi NNW 9.2 mph 16.1 mph N/A   Clear
4:15 AM 36.3 °F 28.9 °F 31.6 °F 83% 30.15 in 10.0 mi NNW 10.4 mph 16.1 mph N/A   Clear
4:35 AM 35.8 °F 28.3 °F 31.5 °F 84% 30.15 in 10.0 mi North 10.4 mph - N/A   Clear
4:55 AM 35.4 °F 27.3 °F 31.3 °F 85% 30.16 in 10.0 mi NNW 11.5 mph 16.1 mph N/A   Clear
5:15 AM 35.4 °F 26.8 °F 31.5 °F 85% 30.18 in 10.0 mi North 12.7 mph 19.6 mph N/A   Mostly Cloudy
5:35 AM 36.0 °F 26.7 °F 31.8 °F 85% 30.20 in 10.0 mi North 15.0 mph 19.6 mph N/A   Overcast
5:55 AM 35.8 °F 26.9 °F 31.6 °F 85% 30.21 in 10.0 mi North 13.8 mph 23.0 mph N/A   Overcast
6:15 AM 34.3 °F 24.2 °F 30.4 °F 85% 30.23 in 10.0 mi North 16.1 mph 27.6 mph N/A   Overcast
6:35 AM 32.9 °F 22.0 °F 29.5 °F 87% 30.25 in 10.0 mi North 17.3 mph 27.6 mph N/A   Overcast
6:55 AM 31.8 °F 21.0 °F 27.5 °F 84% 30.27 in 10.0 mi North 16.1 mph 26.5 mph N/A   Overcast
7:15 AM 30.7 °F 19.6 °F 26.2 °F 83% 30.30 in 10.0 mi North 16.1 mph 26.5 mph N/A   Overcast
7:35 AM 29.7 °F 19.6 °F 24.3 °F 80% 30.32 in 10.0 mi North 12.7 mph 24.2 mph N/A   Overcast
7:55 AM 28.4 °F 16.6 °F 21.6 °F 76% 30.34 in 10.0 mi NNE 16.1 mph 26.5 mph N/A   Mostly Cloudy
8:15 AM 28.4 °F 17.0 °F 21.2 °F 74% 30.35 in 10.0 mi North 15.0 mph 24.2 mph N/A   Scattered Clouds
8:35 AM 28.4 °F 18.0 °F 20.1 °F 71% 30.37 in 10.0 mi North 12.7 mph 24.2 mph N/A   Clear
8:55 AM 27.5 °F 15.9 °F 19.6 °F 72% 30.39 in 10.0 mi North 15.0 mph 21.9 mph N/A   Clear
9:15 AM 27.5 °F 15.9 °F 18.7 °F 69% 30.40 in 10.0 mi North 15.0 mph 25.3 mph N/A   Clear
9:35 AM 27.0 °F 15.6 °F 18.0 °F 69% 30.41 in 10.0 mi North 13.8 mph 21.9 mph N/A   Mostly Cloudy
9:55 AM 26.4 °F 13.6 °F 17.4 °F 69% 30.42 in 10.0 mi North 17.3 mph - N/A   Overcast
10:15 AM 26.2 °F 14.2 °F 17.1 °F 68% 30.43 in 10.0 mi North 15.0 mph 25.3 mph N/A   Mostly Cloudy
10:35 AM 26.4 °F 14.0 °F 17.4 °F 69% 30.45 in 10.0 mi North 16.1 mph 26.5 mph N/A   Mostly Cloudy
10:55 AM 26.6 °F 12.7 °F 18.1 °F 70% 30.46 in 10.0 mi North 20.7 mph 28.8 mph N/A   Overcast
11:15 AM 27.0 °F 14.7 °F 18.1 °F 69% 30.46 in 10.0 mi North 16.1 mph 24.2 mph N/A   Overcast
11:35 AM 27.1 °F 13.8 °F 18.3 °F 69% 30.47 in 10.0 mi North 19.6 mph 24.2 mph N/A   Overcast
11:55 AM 27.7 °F 14.5 °F 18.1 °F 67% 30.47 in 10.0 mi North 19.6 mph 26.5 mph N/A   Overcast
12:15 PM 27.0 °F 13.9 °F 17.8 °F 68% 30.48 in 10.0 mi NNE 18.4 mph 24.2 mph N/A   Mostly Cloudy
12:35 PM 26.4 °F 14.5 °F 17.1 °F 68% 30.48 in 10.0 mi North 15.0 mph 25.3 mph N/A   Mostly Cloudy
12:55 PM 27.1 °F 14.9 °F 16.0 °F 63% 30.49 in 10.0 mi North 16.1 mph 24.2 mph N/A   Mostly Cloudy
1:15 PM 26.2 °F 14.2 °F 14.9 °F 62% 30.50 in 10.0 mi North 15.0 mph 21.9 mph N/A   Scattered Clouds
1:35 PM 25.7 °F 13.1 °F 14.9 °F 64% 30.50 in 10.0 mi North 16.1 mph 25.3 mph N/A   Mostly Cloudy
1:55 PM 25.7 °F 12.3 °F 16.2 °F 67% 30.51 in 10.0 mi North 18.4 mph 24.2 mph N/A   Mostly Cloudy
2:15 PM 26.1 °F 14.5 °F 15.8 °F 65% 30.52 in 10.0 mi North 13.8 mph 19.6 mph N/A   Overcast
2:35 PM 26.2 °F 13.0 °F 15.6 °F 64% 30.52 in 10.0 mi North 18.4 mph 23.0 mph N/A   Overcast
2:55 PM 25.7 °F 13.5 °F 14.0 °F 61% 30.52 in 10.0 mi North 15.0 mph 23.0 mph N/A   Scattered Clouds
3:15 PM 26.6 °F 15.2 °F 12.7 °F 56% 30.53 in 10.0 mi North 13.8 mph 20.7 mph N/A   Clear
3:35 PM 27.7 °F 16.1 °F 12.2 °F 52% 30.53 in 10.0 mi North 15.0 mph 18.4 mph N/A   Clear
3:55 PM 27.3 °F 14.8 °F 10.2 °F 49% 30.54 in 10.0 mi North 17.3 mph 21.9 mph N/A   Clear
4:15 PM 27.0 °F 15.6 °F 10.2 °F 49% 30.55 in 10.0 mi North 13.8 mph 21.9 mph N/A   Clear
4:35 PM 26.1 °F 13.1 °F 8.4 °F 47% 30.56 in 10.0 mi North 17.3 mph - N/A   Clear
4:55 PM 24.6 °F 12.2 °F 8.1 °F 49% 30.58 in 10.0 mi North 15.0 mph 20.7 mph N/A   Clear
5:15 PM 24.3 °F 12.7 °F 8.6 °F 51% 30.58 in 10.0 mi North 12.7 mph 20.7 mph N/A   Clear
5:35 PM 23.9 °F 11.2 °F 7.5 °F 50% 30.59 in 10.0 mi North 15.0 mph 21.9 mph N/A   Clear
5:55 PM 23.7 °F 11.0 °F 6.1 °F 47% 30.60 in 10.0 mi North 15.0 mph 21.9 mph N/A   Clear
6:15 PM 23.0 °F 10.1 °F 7.9 °F 52% 30.61 in 10.0 mi North 15.0 mph 21.9 mph N/A   Clear
6:35 PM 22.8 °F 10.9 °F 9.7 °F 57% 30.63 in 10.0 mi North 12.7 mph - N/A   Clear
6:55 PM 22.5 °F 9.9 °F 9.0 °F 56% 30.64 in 10.0 mi North 13.8 mph 18.4 mph N/A   Clear
7:15 PM 22.1 °F 8.9 °F 9.0 °F 57% 30.65 in 10.0 mi North 15.0 mph 20.7 mph N/A   Clear
7:35 PM 22.1 °F 10.0 °F 9.9 °F 59% 30.65 in 10.0 mi North 12.7 mph 18.4 mph N/A   Clear
7:55 PM 21.6 °F 9.3 °F 9.5 °F 60% 30.66 in 10.0 mi North 12.7 mph 21.9 mph N/A   Clear
8:15 PM 21.0 °F 8.1 °F 9.5 °F 61% 30.67 in 10.0 mi North 13.8 mph 23.0 mph N/A   Clear
8:35 PM 20.7 °F 8.2 °F 9.5 °F 62% 30.68 in 10.0 mi North 12.7 mph - N/A   Clear
8:55 PM 20.1 °F 7.5 °F 9.1 °F 62% 30.69 in 10.0 mi North 12.7 mph 19.6 mph N/A   Clear
9:15 PM 19.4 °F 6.6 °F 9.5 °F 65% 30.70 in 10.0 mi North 12.7 mph 18.4 mph N/A   Clear
9:35 PM 18.9 °F 6.5 °F 9.5 °F 67% 30.71 in 10.0 mi North 11.5 mph 17.3 mph N/A   Clear
9:55 PM 18.3 °F 6.6 °F 9.3 °F 68% 30.73 in 10.0 mi North 10.4 mph 18.4 mph N/A   Clear
10:15 PM 17.4 °F 6.2 °F 9.1 °F 70% 30.74 in 10.0 mi North 9.2 mph - N/A   Clear
10:35 PM 16.7 °F 6.2 °F 8.6 °F 70% 30.75 in 10.0 mi North 8.1 mph - N/A   Clear
10:55 PM 16.3 °F 6.7 °F 8.6 °F 72% 30.75 in 10.0 mi North 6.9 mph - N/A   Clear
11:15 PM 15.3 °F 6.6 °F 8.6 °F 75% 30.76 in 10.0 mi North 5.8 mph - N/A   Clear
11:35 PM 14.7 °F 5.9 °F 8.4 °F 76% 30.76 in 10.0 mi NNW 5.8 mph - N/A   Clear
11:55 PM 14.0 °F 5.1 °F 8.2 °F 78% 30.77 in 10.0 mi NNW 5.8 mph - N/A   Clear